Flag for Canada Weather past 2 weeks in Nanaimo, British Columbia, Canada

Now
45 °F

Cool.


Feels Like: 39 °F
Forecast: 43 / 51 °F
Wind: 12 mph from South

Location: Entrance Island


UV Index: 3 (Moderate)

Visibility: N/A


Pressure: 29.84 "Hg

Humidity: 84%

Dew point: 40 °F

Location of NanaimoLocation

Historic Weather in Nanaimo

°F

Nanaimo temperature yesterday

Maximum temperature yesterday: 52 °F (at 4:00 PM)
Minimum temperature yesterday: 46 °F (at 11:00 PM)
Average temperature yesterday: 48 °F

Past Weeks' High & Low Weather Summary

 TemperatureHumidityPressure
High56 °F (Apr 14, 8:00 PM)96% (Apr 17, 3:00 PM)30.36 "Hg (Apr 17, 3:00 PM)
Low44 °F (Apr 14, 6:00 AM)39% (Apr 13, 9:00 PM)29.66 "Hg (Apr 17, 5:00 PM)
Average49 °F75%30.05 "Hg
* Reported Apr 8 4:00 AM — Apr 23 4:00 AM, Nanaimo, Weather by CustomWeather, © 2014

Note: Actual official high and low records may vary slightly from our data, if they occured in-between our weather recording intervals... More about our weather records

Advertising

Historic Weather Conditions — Data for Previous 24 hours

 ConditionsComfort  
Time TempWeatherWind HumidityBarometerVisibility
4:00 AM
Apr 23
45 °FCool.8 mph85%29.83 "HgN/A
3:00 AM45 °FCool.9 mph84%29.83 "HgN/A
2:00 AM46 °FCool.7 mph84%29.83 "HgN/A
1:00 AM46 °FCool.6 mph84%29.83 "HgN/A
12:00 AM45 °FCool.7 mph84%29.83 "HgN/A
11:00 PM
Apr 22
46 °FCool.7 mph80%29.83 "HgN/A
10:00 PM46 °FCool.13 mph81%29.83 "HgN/A
9:00 PM47 °FCool.17 mph74%29.82 "HgN/A
8:00 PM49 °FCool.18 mph70%29.79 "HgN/A
7:00 PM51 °FCool.9 mph69%29.80 "HgN/A
6:00 PM51 °FCool.5 mph60%29.81 "HgN/A
5:00 PM50 °FCool.24 mph57%29.82 "HgN/A
4:00 PM52 °FCool.9 mph63%29.81 "HgN/A
3:00 PM51 °FCool.12 mph64%29.82 "HgN/A
2:00 PM52 °FCool.7 mph60%29.82 "HgN/A
1:00 PM50 °FCool.6 mph65%29.82 "HgN/A
12:00 PM48 °FCool.7 mph67%29.82 "HgN/A
11:00 AM48 °FCool.9 mph67%29.81 "HgN/A
10:00 AM47 °FCool.10 mph72%29.80 "HgN/A
9:00 AM46 °FCool.7 mph64%29.80 "HgN/A
8:00 AM46 °FCool.9 mph73%29.82 "HgN/A
7:00 AM47 °FCool.15 mph76%29.81 "HgN/A
6:00 AM47 °FCool.14 mph78%29.81 "HgN/A
5:00 AM47 °FCool.18 mph72%29.80 "HgN/A
Weather by CustomWeather, © 2014

See weather overview